Location: Hackbridge
(51.3833°N, 0.1500°W)
Time: 03:22:05
(UTC+00:00)

Cosmos 1844 Rocket - Pass Details

Date: 13 October 2019
Orbit: 826 x 843 km, 71.0° (Epoch: 16 November)

Event Time Altitude Azimuth Distance (km) Brightness Sun altitude
Rises 18:40:04 0° 202° (SSW) 3,388 6.1 -14.4°
Reaches altitude 10° 18:42:30 10° 200° (SSW) 2,456 5.3 -14.8°
Maximum altitude 18:48:08 75° 116° (ESE) 874 2.6 -15.7°
Drops below altitude 10° 18:53:46 10° 33° (NNE) 2,463 4.9 -16.6°
Sets 18:56:13 0° 32° (NNE) 3,398 5.6 -16.9°
